This is the latest recevied weather packets stored in our database for station/object WA1TYB-13. If no packets are shown the sender has not sent any weather packets the latest 1 day(s).
| Time | Temp. | Humidity | Pressure | Rain* | Wind** | Luminosity | Snow |
|---|---|---|---|---|---|---|---|
| 1777986276 | 1.67° C | 66% | 1019.5 hPa | 0 mm | 0 m/s | 39 W/m² | - |
| 1777985973 | 1.67° C | 66% | 1019.4 hPa | 0 mm | 0.45 m/s, 242° | 33 W/m² | - |
| 1777985670 | 1.67° C | 66% | 1019.4 hPa | 0 mm | 0 m/s | 26 W/m² | - |
| 1777985366 | 1.67° C | 66% | 1019.4 hPa | 0 mm | 0 m/s | 22 W/m² | - |
| 1777985064 | 1.11° C | 67% | 1019.3 hPa | 0 mm | 0.45 m/s, 192° | 19 W/m² | - |
| 1777984759 | 0.56° C | 69% | 1019.1 hPa | 0 mm | 0 m/s | 16 W/m² | - |
| 1777984456 | 0.56° C | 70% | 1019.3 hPa | 0 mm | 0.45 m/s, 187° | 13 W/m² | - |
| 1777984152 | 0.56° C | 68% | 1019.1 hPa | 0 mm | 0.89 m/s, 165° | 10 W/m² | - |
| 1777983850 | 0.56° C | 67% | 1019.4 hPa | 0 mm | 0.45 m/s, 178° | 6 W/m² | - |
| 1777983546 | 0.56° C | 67% | 1019 hPa | 0 mm | 0 m/s | 4 W/m² | - |
| 1777983243 | 0.56° C | 68% | 1018.6 hPa | 0 mm | 0 m/s | 2 W/m² | - |
| 1777982939 | 0.56° C | 68% | 1018.8 hPa | 0 mm | 0 m/s | 2 W/m² | - |
| 1777982635 | 0° C | 70% | 1018.8 hPa | 0 mm | 0.45 m/s, 170° | 0 W/m² | - |
| 1777982334 | 0° C | 70% | 1019 hPa | 0 mm | 0 m/s | 0 W/m² | - |
| 1777982032 | 0° C | 70% | 1018.8 hPa | 0 mm | 0 m/s | 0 W/m² | - |
| 1777981729 | 0° C | 69% | 1018.7 hPa | 0 mm | 0 m/s | 0 W/m² | - |
| 1777981426 | 0° C | 69% | 1019 hPa | 0 mm | 0 m/s | 0 W/m² | - |
| 1777981122 | 0° C | 69% | 1018.5 hPa | 0 mm | 0 m/s | 0 W/m² | - |
| 1777980819 | 0.56° C | 69% | 1018.6 hPa | 0 mm | 0.45 m/s, 175° | 0 W/m² | - |
| 1777980514 | 0.56° C | 69% | 1018.5 hPa | 0 mm | 0.45 m/s, 225° | 0 W/m² | - |
| 1777980212 | 0.56° C | 68% | 1018.9 hPa | 0 mm | 0.89 m/s, 194° | 0 W/m² | - |
| 1777979907 | 1.11° C | 67% | 1018.8 hPa | 0 mm | 0.89 m/s, 178° | 0 W/m² | - |
| 1777979603 | 0.56° C | 67% | 1019 hPa | 0 mm | 0.45 m/s, 136° | 0 W/m² | - |
| 1777979299 | 0.56° C | 66% | 1018.9 hPa | 0 mm | 0 m/s | 0 W/m² | - |
| 1777978997 | 1.11° C | 65% | 1018.6 hPa | 0 mm | 0.45 m/s, 234° | 0 W/m² | - |
* Rain latest hour (hover to see other rain measurements)
** Current wind speed in m/s (hover to see current wind gust speed)